Regional Weather Roundup
Issued by NWS Cleveland, OH

Home | Current Version | Previous Version | Text Only | Print | Product List | Glossary Off
Versions: 1 2 3 4 5 6 7 8 9 10 11 12 13 14 15 16 17 18 19 20 21 22 23 24 25 26 27 28 29 30 31 32 33 34 35 36 37 38 39 40 41 42 43 44 45 46 47 48 49 50

000
ASUS41 KCLE 170400
RWRCLE
OHIO REGIONAL WEATHER ROUNDUP
NATIONAL WEATHER SERVICE WILMINGTON, OH
1200 AM EDT THU APR 17 2014

NOTE: "FAIR" INDICATES FEW OR NO CLOUDS BELOW 12,000 FEET WITH NO
SIGNIFICANT WEATHER AND/OR OBSTRUCTIONS TO VISIBILITY.

OHZ001>008-015>018-024>027-034-035-043-044-170500-
   NORTHWEST OHIO

CITY           SKY/WX    TMP DP  RH WIND       PRES   REMARKS
DEFIANCE       CLEAR     34  27  75 E9        30.33S WCI  27
FINDLAY        PTCLDY    35  29  78 E7        30.32S WCI  29
TOLEDO EXPRESS CLEAR     34  28  79 E9        30.34S WCI  27
TOLEDO METCALF CLEAR     35  29  78 E8        30.36F WCI  29
LIMA           PTCLDY    36  27  69 E8        30.30S
$$

OHZ009>014-019>023-028>033-038-089-170500-
   NORTHEAST OHIO

CITY           SKY/WX    TMP DP  RH WIND       PRES   REMARKS
CLE-HOPKINS    MOCLDY    40  19  43 E8        30.40F
CLE-LAKEFRONT  PTCLDY    36  24  62 NE8       30.39F
CUY CO. ARPT   NOT AVBL
LORAIN-ELYRIA  PTCLDY    38  23  55 E8        30.38F
ASHTABULA      PTCLDY    31  21  66 E5        30.43S WCI  26
AKRON-CANTON   PTCLDY    37  17  44 E6        30.37F
WOOSTER        NOT AVBL
MANSFIELD      CLEAR     36  21  54 SE12      30.33F
YOUNGSTOWN     PTCLDY    34  18  52 E8        30.39F WCI  27
$$

OHZ042-051>053-060>062-070>072-077>081-170500-
  SOUTHWEST OHIO

CITY           SKY/WX    TMP DP  RH WIND       PRES   REMARKS
CINC-COVINGTON PTCLDY    41  23  48 E7        30.27R
CINC-LUNKEN    CLEAR     37  30  75 NE3       30.30R
HAMILTON       CLEAR     41  25  53 E5        30.30R
DAYTON         NOT AVBL
WRIGHT-PAT AFB PTCLDY    39  24  54 E7        30.30S
DAYTON GENERAL PTCLDY    41  24  51 E7        30.28R
WILMINGTON     PTCLDY    37  23  56 E6        30.28S
$$

OHZ036-037-039>041-045>050-054>059-063>069-073>076-082>088-170500-
  CENTRAL AND SOUTHEAST OHIO

CITY           SKY/WX    TMP DP  RH WIND       PRES   REMARKS
COLUMBUS       MOCLDY    41  21  44 E12       30.32S
OSU AIRPORT    PTCLDY    37  21  52 E8        30.32R
BOLTON FIELD   NOT AVBL
RICKENBACK AFB NOT AVBL
NEWARK         CLEAR     39  18  42 E9        30.33S
MARION         PTCLDY    35  23  61 E8        30.33S WCI  29
LANCASTER      CLEAR     38  22  52 E7        30.32S
ZANESVILLE     CLEAR     38  17  42 E7        30.34S
NEW PHILLY     PTCLDY    34  20  56 E3        30.38S
$$



USA.gov is the U.S. government's official web portal to all federal, state and local government web resources and services.